contact:dominique.lefevre@mio.osupytheas.fr, maurice.libes@osupytheas.fr, didier.mallarino@osupytheas.fr
Project:EMSO http://www.emso-fr.org/EMSO-France
Depth: 2436.0 m
Title:EMSO Ligure Ouest : Data MII capteur AQUADOPP
Date,Latitude,Longitude,X_East,Y_North,Z_Up,Amplitude_X,Amplitude_Y,Amplitude_Z,Batterie,SoundSpeed,Heading,Pitch,Roll,Pressure,TIS,Speed,Direction
, degrees North, degrees East, m.s-1, m.s-1,m.s-1, 1, 1, 1, Volt, m.s-1, degree, degree, degree, dbar, degree_C, m.s-1, degree
2022-07-10T00:04:03,42.805,6.029,-0.041,0.021,-0.01,105.0,102.0,101.0,13.4,1505.2,322.0,-0.8,1.8,2470.86,13.28,0.046,297.1
2022-07-10T00:07:03,42.805,6.029,-0.032,0.024,-0.025,105.0,105.0,102.0,13.3,1505.2,328.0,-0.8,1.9,2470.895,13.28,0.04,306.9
2022-07-10T00:10:03,42.805,6.029,-0.032,0.02,-0.007,105.0,104.0,102.0,13.4,1505.2,319.6,-0.7,1.8,2470.872,13.29,0.037,302.0
2022-07-10T00:13:03,42.805,6.029,-0.035,0.022,-0.01,104.0,105.0,101.0,13.3,1505.2,323.0,-0.7,1.8,2470.838,13.29,0.041,302.2
2022-07-10T00:16:03,42.805,6.029,-0.028,0.026,-0.035,105.0,104.0,102.0,13.4,1505.2,329.7,-0.8,1.8,2470.87,13.29,0.038,312.9
2022-07-10T00:19:03,42.805,6.029,-0.018,0.019,0.016,105.0,104.0,101.0,13.4,1505.2,329.0,-0.8,1.9,2470.806,13.29,0.026,316.5
2022-07-10T00:22:03,42.805,6.029,-0.035,0.023,-0.019,104.0,104.0,101.0,13.4,1505.2,328.9,-0.7,1.8,2470.858,13.29,0.041,303.3
2022-07-10T00:25:03,42.805,6.029,-0.058,0.025,-0.007,104.0,105.0,101.0,13.3,1505.2,319.6,-0.8,1.8,2470.846,13.29,0.063,293.3
2022-07-10T00:28:03,42.805,6.029,-0.041,0.005,-0.053,105.0,104.0,101.0,13.4,1505.2,326.3,-0.8,1.8,2470.858,13.29,0.041,277.0
2022-07-10T00:31:03,42.805,6.029,-0.034,0.017,0.005,105.0,104.0,102.0,13.3,1505.2,322.0,-0.7,1.8,2470.856,13.29,0.038,296.6
2022-07-10T00:34:03,42.805,6.029,-0.045,0.007,-0.014,104.0,103.0,101.0,13.3,1505.2,328.6,-0.8,1.9,2470.846,13.29,0.045,278.8
2022-07-10T00:37:03,42.805,6.029,-0.03,0.02,-0.002,104.0,104.0,100.0,13.4,1505.2,323.8,-0.8,1.8,2470.846,13.29,0.036,303.7
2022-07-10T00:40:03,42.805,6.029,-0.031,0.013,-0.001,105.0,103.0,102.0,13.4,1505.2,328.6,-0.8,1.8,2470.858,13.29,0.033,292.7
2022-07-10T00:43:03,42.805,6.029,-0.038,0.009,-0.028,105.0,104.0,101.0,13.4,1505.2,330.1,-0.8,1.8,2470.853,13.29,0.039,283.3
2022-07-10T00:46:03,42.805,6.029,-0.036,0.017,-0.015,105.0,104.0,102.0,13.3,1505.2,323.8,-0.7,1.8,2470.881,13.29,0.039,295.3
2022-07-10T00:49:03,42.805,6.029,-0.035,0.023,-0.019,103.0,105.0,101.0,13.4,1505.2,320.8,-0.7,1.8,2470.833,13.29,0.041,303.3
2022-07-10T00:52:03,42.805,6.029,-0.023,0.026,-0.009,104.0,104.0,102.0,13.4,1505.2,326.5,-0.8,1.8,2470.858,13.29,0.034,318.5
2022-07-10T00:55:03,42.805,6.029,-0.027,0.037,-0.023,104.0,104.0,101.0,13.4,1505.2,319.7,-0.8,1.8,2470.84,13.29,0.045,323.9
2022-07-10T00:58:03,42.805,6.029,-0.038,0.02,-0.019,104.0,102.0,101.0,13.4,1505.2,323.9,-0.8,1.8,2470.838,13.29,0.042,297.8
2022-07-10T01:04:03,42.805,6.029,-0.067,0.033,-0.011,106.0,105.0,104.0,13.4,1505.2,327.4,-0.8,1.8,2470.901,13.28,0.074,296.2
2022-07-10T01:07:03,42.805,6.029,-0.055,0.052,-0.003,105.0,106.0,103.0,13.4,1505.2,322.3,-0.7,1.8,2470.877,13.29,0.075,313.4
2022-07-10T01:10:03,42.805,6.029,-0.032,0.012,0.004,104.0,105.0,102.0,13.4,1505.2,323.0,-0.8,1.8,2470.897,13.29,0.034,290.6
2022-07-10T01:13:03,42.805,6.029,-0.062,0.035,-0.016,104.0,104.0,101.0,13.4,1505.2,324.9,-0.8,1.8,2470.835,13.29,0.071,299.4
2022-07-10T01:16:03,42.805,6.029,-0.03,0.025,0.017,105.0,103.0,101.0,13.3,1505.2,321.1,-0.7,1.8,2470.871,13.29,0.039,309.8
2022-07-10T01:19:03,42.805,6.029,-0.047,0.029,-0.039,104.0,104.0,101.0,13.3,1505.2,326.6,-0.7,1.8,2470.862,13.29,0.055,301.7
2022-07-10T01:22:03,42.805,6.029,-0.026,0.018,-0.011,105.0,104.0,100.0,13.4,1505.2,326.1,-0.8,1.8,2470.837,13.29,0.031,304.7
2022-07-10T01:25:03,42.805,6.029,-0.012,0.025,-0.017,104.0,104.0,101.0,13.4,1505.2,327.9,-0.8,1.8,2470.867,13.29,0.027,334.4
2022-07-10T01:28:03,42.805,6.029,-0.028,0.029,-0.016,105.0,104.0,101.0,13.3,1505.2,332.1,-0.7,1.8,2470.88,13.29,0.04,316.0
2022-07-10T01:31:03,42.805,6.029,-0.041,0.016,-0.029,104.0,105.0,102.0,13.4,1505.2,332.1,-0.8,1.8,2470.874,13.29,0.044,291.3
2022-07-10T01:34:03,42.805,6.029,-0.041,0.024,-0.011,103.0,103.0,102.0,13.4,1505.2,328.6,-0.7,1.8,2470.889,13.29,0.047,300.3
2022-07-10T01:37:03,42.805,6.029,-0.018,0.005,-0.021,105.0,104.0,101.0,13.4,1505.2,323.0,-0.8,1.8,2470.871,13.29,0.018,285.5
2022-07-10T01:40:03,42.805,6.029,-0.031,0.027,0.0,105.0,104.0,101.0,13.4,1505.2,319.0,-0.8,1.8,2470.889,13.29,0.041,311.1
2022-07-10T01:43:03,42.805,6.029,-0.039,0.034,-0.002,105.0,103.0,102.0,13.3,1505.2,326.3,-0.8,1.8,2470.855,13.29,0.051,311.1
2022-07-10T01:46:03,42.805,6.029,-0.038,0.013,-0.007,103.0,104.0,102.0,13.4,1505.2,319.8,-0.7,1.8,2470.861,13.29,0.04,288.9
2022-07-10T01:49:03,42.805,6.029,-0.049,0.043,-0.002,104.0,104.0,101.0,13.4,1505.2,324.2,-0.8,1.8,2470.88,13.29,0.065,311.3
2022-07-10T01:52:03,42.805,6.029,-0.015,0.039,-0.008,104.0,104.0,103.0,13.4,1505.2,332.7,-0.7,1.8,2470.908,13.29,0.041,339.0
2022-07-10T01:55:03,42.805,6.029,-0.04,0.02,0.007,103.0,105.0,101.0,13.3,1505.2,330.2,-0.7,1.8,2470.888,13.29,0.044,296.6
2022-07-10T01:58:03,42.805,6.029,-0.017,0.033,-0.041,104.0,103.0,102.0,13.3,1505.2,332.9,-0.7,1.8,2470.886,13.29,0.037,332.7
2022-07-10T02:04:03,42.805,6.029,-0.023,0.027,0.008,104.0,103.0,102.0,13.3,1505.2,329.0,-0.8,1.8,2470.964,13.28,0.035,319.6
2022-07-10T02:07:03,42.805,6.029,-0.032,0.02,-0.052,105.0,105.0,102.0,13.4,1505.2,324.1,-0.8,1.8,2470.95,13.29,0.037,302.0
2022-07-10T02:10:03,42.805,6.029,-0.038,0.017,-0.03,103.0,105.0,102.0,13.4,1505.2,325.5,-0.8,1.8,2470.925,13.29,0.041,294.1
2022-07-10T02:13:03,42.805,6.029,-0.017,0.02,0.009,104.0,105.0,102.0,13.3,1505.2,320.5,-0.8,1.8,2470.879,13.29,0.026,319.6
2022-07-10T02:16:03,42.805,6.029,-0.019,0.018,-0.024,103.0,105.0,101.0,13.4,1505.2,321.7,-0.8,1.8,2470.941,13.29,0.026,313.5
2022-07-10T02:19:03,42.805,6.029,-0.039,0.024,-0.017,104.0,104.0,100.0,13.4,1505.2,320.8,-0.8,1.8,2470.928,13.29,0.045,301.6
2022-07-10T02:22:03,42.805,6.029,-0.027,0.034,0.01,103.0,105.0,102.0,13.3,1505.2,326.8,-0.8,1.8,2470.925,13.29,0.043,321.5
2022-07-10T02:25:03,42.805,6.029,-0.022,0.041,0.011,104.0,103.0,101.0,13.3,1505.2,326.4,-0.7,1.9,2470.906,13.29,0.046,331.8
2022-07-10T02:28:03,42.805,6.029,-0.024,0.009,-0.015,104.0,104.0,101.0,13.4,1505.2,327.8,-0.7,1.8,2470.882,13.29,0.025,290.6
2022-07-10T02:31:03,42.805,6.029,-0.021,0.011,-0.01,105.0,103.0,101.0,13.4,1505.2,322.7,-0.8,1.9,2470.923,13.29,0.023,297.6
2022-07-10T02:34:03,42.805,6.029,-0.049,0.019,-0.023,104.0,104.0,101.0,13.4,1505.2,324.6,-0.7,1.8,2470.916,13.29,0.052,291.2
2022-07-10T02:37:03,42.805,6.029,-0.029,0.027,0.014,103.0,105.0,102.0,13.4,1505.2,327.1,-0.7,1.8,2470.892,13.29,0.039,313.0
2022-07-10T02:40:03,42.805,6.029,-0.045,0.015,-0.001,104.0,103.0,101.0,13.4,1505.2,321.2,-0.7,1.8,2470.886,13.29,0.047,288.4
2022-07-10T02:43:03,42.805,6.029,-0.025,0.023,-0.019,105.0,104.0,102.0,13.4,1505.2,330.4,-0.8,1.8,2470.906,13.29,0.033,312.6
2022-07-10T02:46:03,42.805,6.029,-0.018,0.011,0.002,104.0,104.0,102.0,13.3,1505.2,329.5,-0.8,1.8,2470.877,13.29,0.021,301.4
2022-07-10T02:49:03,42.805,6.029,-0.022,0.024,0.002,104.0,104.0,101.0,13.4,1505.2,330.9,-0.8,1.8,2470.882,13.29,0.032,317.5
2022-07-10T02:52:03,42.805,6.029,-0.039,0.005,-0.057,103.0,104.0,101.0,13.3,1505.2,328.8,-0.8,1.9,2470.896,13.29,0.039,277.3
2022-07-10T02:55:03,42.805,6.029,-0.025,0.014,0.015,104.0,104.0,102.0,13.4,1505.2,324.5,-0.7,1.8,2470.897,13.29,0.028,299.3
2022-07-10T02:58:03,42.805,6.029,-0.033,0.014,-0.013,105.0,104.0,102.0,13.4,1505.2,328.1,-0.8,1.8,2470.898,13.29,0.035,293.0
2022-07-10T03:04:03,42.805,6.029,-0.04,0.025,-0.014,104.0,104.0,101.0,13.4,1505.2,330.0,-0.8,1.8,2470.918,13.28,0.047,302.0
2022-07-10T03:07:03,42.805,6.029,-0.026,0.023,0.002,104.0,104.0,101.0,13.4,1505.2,331.6,-0.8,1.8,2470.965,13.28,0.034,311.5
2022-07-10T03:10:03,42.805,6.029,-0.023,0.017,-0.012,104.0,103.0,101.0,13.4,1505.2,331.4,-0.7,1.8,2470.912,13.29,0.028,306.5
2022-07-10T03:13:03,42.805,6.029,-0.027,0.006,-0.014,104.0,105.0,101.0,13.4,1505.2,330.6,-0.8,1.8,2470.927,13.29,0.027,282.5
2022-07-10T03:16:03,42.805,6.029,-0.014,-0.01,-0.022,103.0,104.0,102.0,13.4,1505.2,328.7,-0.8,1.8,2470.891,13.29,0.017,234.5
2022-07-10T03:19:03,42.805,6.029,-0.023,0.016,-0.038,104.0,104.0,101.0,13.3,1505.2,320.3,-0.7,1.8,2470.927,13.29,0.028,304.8
2022-07-10T03:22:03,42.805,6.029,-0.024,0.011,-0.003,103.0,104.0,102.0,13.4,1505.2,322.4,-0.8,1.8,2470.923,13.29,0.026,294.6
2022-07-10T03:25:03,42.805,6.029,-0.028,0.031,-0.043,105.0,103.0,102.0,13.3,1505.2,328.4,-0.8,1.8,2470.928,13.29,0.041,317.9
2022-07-10T03:28:03,42.805,6.029,-0.034,0.019,-0.013,104.0,105.0,101.0,13.4,1505.2,323.6,-0.8,1.8,2470.908,13.29,0.038,299.2
2022-07-10T03:31:03,42.805,6.029,-0.035,0.017,-0.017,103.0,104.0,101.0,13.4,1505.2,320.6,-0.8,1.8,2470.881,13.29,0.038,295.9
2022-07-10T03:34:03,42.805,6.029,-0.027,0.009,0.0,104.0,102.0,101.0,13.4,1505.2,321.9,-0.7,1.8,2470.874,13.29,0.028,288.4
2022-07-10T03:37:03,42.805,6.029,-0.058,0.037,0.004,104.0,105.0,100.0,13.3,1505.2,330.6,-0.7,1.8,2470.891,13.29,0.068,302.5
2022-07-10T03:40:03,42.805,6.029,-0.027,0.009,0.014,103.0,104.0,102.0,13.4,1505.2,331.3,-0.8,1.8,2470.88,13.29,0.028,288.4
2022-07-10T03:43:03,42.805,6.029,-0.037,0.028,-0.012,105.0,103.0,102.0,13.3,1505.2,322.4,-0.8,1.8,2470.892,13.29,0.046,307.1
2022-07-10T03:46:03,42.805,6.029,-0.002,0.015,-0.026,103.0,102.0,102.0,13.4,1505.2,322.3,-0.8,1.8,2470.892,13.29,0.015,352.4
2022-07-10T03:49:03,42.805,6.029,-0.036,0.005,-0.024,103.0,103.0,101.0,13.4,1505.2,320.3,-0.8,1.8,2470.9,13.29,0.036,277.9
2022-07-10T03:52:03,42.805,6.029,-0.049,0.041,0.002,105.0,103.0,103.0,13.3,1505.2,326.5,-0.8,1.8,2470.904,13.29,0.063,309.9
2022-07-10T03:55:03,42.805,6.029,-0.033,0.031,-0.006,106.0,104.0,101.0,13.4,1505.2,330.7,-0.7,1.8,2470.899,13.29,0.045,313.2
2022-07-10T03:58:03,42.805,6.029,-0.045,0.011,-0.026,103.0,104.0,101.0,13.4,1505.2,323.9,-0.8,1.8,2470.908,13.29,0.046,283.7
2022-07-10T04:04:03,42.805,6.029,-0.031,0.006,-0.012,105.0,104.0,103.0,13.3,1505.2,320.6,-0.7,1.8,2470.917,13.28,0.031,281.0
2022-07-10T04:07:03,42.805,6.029,-0.044,-0.002,-0.038,104.0,104.0,101.0,13.3,1505.2,323.5,-0.8,1.9,2470.962,13.29,0.044,267.4
2022-07-10T04:10:03,42.805,6.029,-0.047,0.02,0.018,104.0,103.0,102.0,13.4,1505.2,328.1,-0.8,1.8,2470.926,13.29,0.051,293.0
2022-07-10T04:13:03,42.805,6.029,-0.037,0.008,-0.022,104.0,103.0,102.0,13.4,1505.2,332.9,-0.8,1.8,2470.942,13.29,0.037,282.2
2022-07-10T04:16:03,42.805,6.029,-0.041,0.032,-0.041,103.0,104.0,101.0,13.4,1505.2,332.2,-0.7,1.8,2470.95,13.29,0.052,308.0
2022-07-10T04:19:03,42.805,6.029,-0.029,0.031,0.006,104.0,104.0,101.0,13.4,1505.2,326.7,-0.7,1.8,2470.909,13.29,0.042,316.9
2022-07-10T04:22:03,42.805,6.029,-0.029,0.027,-0.023,103.0,104.0,101.0,13.4,1505.2,328.0,-0.8,1.8,2470.964,13.29,0.039,313.0
2022-07-10T04:25:03,42.805,6.029,-0.045,-0.003,-0.034,104.0,104.0,102.0,13.4,1505.2,322.5,-0.8,1.8,2470.91,13.29,0.045,266.2
2022-07-10T04:28:03,42.805,6.029,-0.028,0.019,0.011,104.0,104.0,101.0,13.4,1505.2,323.5,-0.8,1.9,2470.907,13.29,0.033,304.2
2022-07-10T04:31:03,42.805,6.029,-0.006,0.02,0.026,105.0,102.0,101.0,13.4,1505.2,323.6,-0.7,1.8,2470.894,13.29,0.02,343.3
2022-07-10T04:34:03,42.805,6.029,-0.035,0.015,0.009,103.0,104.0,101.0,13.3,1505.2,324.3,-0.7,1.8,2470.882,13.29,0.038,293.2
2022-07-10T04:37:03,42.805,6.029,-0.035,0.023,-0.001,103.0,104.0,102.0,13.4,1505.2,321.5,-0.7,1.8,2470.935,13.29,0.041,303.3
2022-07-10T04:40:03,42.805,6.029,-0.03,0.008,-0.037,103.0,104.0,101.0,13.4,1505.2,328.1,-0.8,1.8,2470.914,13.29,0.031,284.9
2022-07-10T04:43:03,42.805,6.029,-0.014,0.025,-0.021,104.0,104.0,101.0,13.4,1505.2,334.1,-0.7,1.8,2470.875,13.29,0.028,330.7
2022-07-10T04:46:03,42.805,6.029,-0.04,0.028,-0.006,103.0,105.0,100.0,13.3,1505.2,325.4,-0.8,1.8,2470.922,13.29,0.048,305.0
2022-07-10T04:49:03,42.805,6.029,-0.038,0.016,-0.026,104.0,103.0,101.0,13.3,1505.2,330.1,-0.7,1.8,2470.893,13.29,0.041,292.8
2022-07-10T04:52:03,42.805,6.029,-0.027,0.042,-0.014,104.0,104.0,101.0,13.4,1505.2,327.9,-0.7,1.8,2470.898,13.29,0.049,327.3
2022-07-10T04:55:03,42.805,6.029,-0.026,0.015,0.0,104.0,105.0,100.0,13.4,1505.2,324.2,-0.8,1.8,2470.855,13.29,0.03,300.0
2022-07-10T04:58:03,42.805,6.029,-0.013,0.014,-0.021,104.0,104.0,100.0,13.4,1505.2,333.6,-0.7,1.8,2470.887,13.29,0.019,317.1
2022-07-10T05:04:03,42.805,6.029,-0.025,0.015,-0.053,103.0,103.0,101.0,13.3,1505.2,325.0,-0.8,1.8,2470.937,13.28,0.029,301.0
2022-07-10T05:07:03,42.805,6.029,-0.006,0.017,-0.006,104.0,104.0,101.0,13.4,1505.2,333.9,-0.8,1.9,2470.914,13.28,0.018,340.6
2022-07-10T05:10:03,42.805,6.029,-0.039,0.042,-0.029,105.0,103.0,100.0,13.4,1505.2,329.8,-0.7,1.8,2470.909,13.29,0.057,317.1
2022-07-10T05:13:03,42.805,6.029,-0.009,0.007,-0.019,105.0,104.0,101.0,13.4,1505.2,323.5,-0.8,1.8,2470.874,13.29,0.011,307.9
2022-07-10T05:16:03,42.805,6.029,-0.03,0.021,-0.015,104.0,105.0,102.0,13.3,1505.2,321.2,-0.8,1.8,2470.925,13.29,0.036,305.0
2022-07-10T05:19:03,42.805,6.029,-0.016,0.0,-0.025,103.0,103.0,101.0,13.4,1505.2,328.7,-0.8,1.8,2470.888,13.29,0.016,270.0
2022-07-10T05:22:03,42.805,6.029,-0.017,0.007,-0.027,105.0,105.0,101.0,13.3,1505.2,326.3,-0.7,1.8,2470.867,13.29,0.018,292.4
2022-07-10T05:25:03,42.805,6.029,-0.014,0.021,-0.016,105.0,104.0,101.0,13.4,1505.2,325.2,-0.7,1.8,2470.919,13.29,0.025,326.3
2022-07-10T05:28:03,42.805,6.029,-0.02,0.008,-0.013,104.0,104.0,103.0,13.3,1505.2,330.0,-0.7,1.8,2470.88,13.29,0.021,291.8
2022-07-10T05:31:03,42.805,6.029,-0.038,0.031,-0.001,106.0,104.0,101.0,13.4,1505.2,333.9,-0.7,1.8,2470.88,13.29,0.049,309.2
2022-07-10T05:34:03,42.805,6.029,-0.039,0.004,0.001,104.0,104.0,102.0,13.4,1505.2,322.7,-0.7,1.8,2470.867,13.29,0.039,275.9
2022-07-10T05:37:03,42.805,6.029,-0.019,0.01,-0.011,104.0,105.0,102.0,13.4,1505.2,325.0,-0.8,1.8,2470.884,13.29,0.021,297.8
2022-07-10T05:40:03,42.805,6.029,-0.024,0.01,-0.047,104.0,106.0,101.0,13.4,1505.2,324.4,-0.7,1.8,2470.898,13.29,0.026,292.6
2022-07-10T05:43:03,42.805,6.029,-0.016,0.011,-0.011,105.0,104.0,101.0,13.4,1505.2,322.7,-0.8,1.9,2470.859,13.29,0.019,304.5
2022-07-10T05:46:03,42.805,6.029,-0.028,0.006,0.001,106.0,103.0,100.0,13.3,1505.2,327.9,-0.8,1.9,2470.868,13.29,0.028,282.1
2022-07-10T05:49:03,42.805,6.029,-0.031,0.003,-0.028,103.0,104.0,102.0,13.4,1505.2,324.0,-0.8,1.8,2470.852,13.29,0.031,275.5
2022-07-10T05:52:03,42.805,6.029,-0.045,0.018,-0.026,103.0,103.0,102.0,13.4,1505.2,329.5,-0.8,1.8,2470.878,13.29,0.048,291.8
2022-07-10T05:55:03,42.805,6.029,-0.035,0.022,-0.038,104.0,105.0,102.0,13.4,1505.2,332.2,-0.8,1.8,2470.862,13.29,0.041,302.2
2022-07-10T05:58:03,42.805,6.029,-0.023,0.007,-0.004,104.0,103.0,102.0,13.4,1505.2,323.2,-0.8,1.8,2470.88,13.29,0.024,286.9
2022-07-10T06:04:03,42.805,6.029,-0.019,0.008,-0.021,104.0,105.0,102.0,13.3,1505.2,328.3,-0.8,1.8,2470.866,13.28,0.02,292.8
2022-07-10T06:07:03,42.805,6.029,-0.049,0.005,-0.037,104.0,103.0,101.0,13.4,1505.2,324.8,-0.8,1.8,2470.922,13.29,0.049,275.8
2022-07-10T06:10:03,42.805,6.029,-0.017,0.017,-0.003,104.0,105.0,102.0,13.4,1505.2,333.2,-0.8,1.8,2470.884,13.29,0.024,315.0
2022-07-10T06:13:03,42.805,6.029,-0.001,0.021,-0.024,104.0,103.0,101.0,13.3,1505.2,329.5,-0.8,1.8,2470.85,13.29,0.021,357.3
2022-07-10T06:16:03,42.805,6.029,-0.012,0.0,-0.033,104.0,104.0,101.0,13.4,1505.2,331.5,-0.8,1.8,2470.885,13.29,0.012,270.0
2022-07-10T06:19:03,42.805,6.029,-0.039,0.011,-0.013,104.0,103.0,102.0,13.4,1505.2,329.5,-0.8,1.8,2470.839,13.29,0.04,285.7
2022-07-10T06:22:03,42.805,6.029,-0.035,0.024,0.008,103.0,105.0,101.0,13.4,1505.2,327.4,-0.8,1.8,2470.852,13.29,0.042,304.4
2022-07-10T06:25:03,42.805,6.029,-0.006,0.026,0.013,103.0,104.0,100.0,13.4,1505.2,324.0,-0.7,1.8,2470.848,13.29,0.026,347.0
2022-07-10T06:28:03,42.805,6.029,-0.035,0.016,-0.039,103.0,104.0,102.0,13.4,1505.2,329.5,-0.8,1.8,2470.822,13.29,0.038,294.6
2022-07-10T06:31:03,42.805,6.029,-0.013,0.006,0.0,103.0,104.0,101.0,13.3,1505.2,325.0,-0.8,1.8,2470.81,13.29,0.014,294.8
2022-07-10T06:34:03,42.805,6.029,-0.038,0.009,-0.009,104.0,104.0,102.0,13.4,1505.2,325.2,-0.7,1.8,2470.808,13.29,0.039,283.3
2022-07-10T06:37:03,42.805,6.029,-0.03,0.017,-0.002,101.0,104.0,101.0,13.4,1505.2,325.2,-0.8,1.8,2470.83,13.29,0.034,299.5
2022-07-10T06:40:03,42.805,6.029,-0.026,-0.002,-0.036,102.0,105.0,102.0,13.4,1505.2,321.9,-0.8,1.8,2470.743,13.29,0.026,265.6
2022-07-10T06:43:03,42.805,6.029,-0.044,0.026,-0.029,104.0,104.0,101.0,13.4,1505.2,326.6,-0.8,1.8,2470.756,13.29,0.051,300.6
2022-07-10T06:46:03,42.805,6.029,-0.008,0.015,-0.011,103.0,105.0,102.0,13.3,1505.2,325.5,-0.8,1.8,2470.764,13.29,0.017,331.9
2022-07-10T06:49:03,42.805,6.029,-0.039,0.019,-0.036,104.0,104.0,102.0,13.4,1505.2,324.0,-0.7,1.8,2470.743,13.29,0.043,296.0
2022-07-10T06:52:03,42.805,6.029,-0.014,0.013,-0.032,104.0,103.0,101.0,13.4,1505.2,325.1,-0.8,1.8,2470.74,13.29,0.019,312.9
2022-07-10T06:55:03,42.805,6.029,-0.043,0.005,-0.053,103.0,103.0,101.0,13.4,1505.2,319.6,-0.8,1.8,2470.742,13.29,0.043,276.6
2022-07-10T06:58:03,42.805,6.029,-0.034,0.007,0.007,104.0,104.0,101.0,13.4,1505.2,322.8,-0.8,1.8,2470.743,13.29,0.034,281.6
2022-07-10T07:04:03,42.805,6.029,-0.066,0.033,0.0,104.0,105.0,102.0,13.4,1505.2,324.5,-0.8,1.8,2470.734,13.28,0.073,296.6
2022-07-10T07:07:03,42.805,6.029,-0.031,0.013,-0.011,104.0,104.0,101.0,13.4,1505.2,326.0,-0.7,1.8,2470.76,13.28,0.033,292.7
2022-07-10T07:10:03,42.805,6.029,-0.037,-0.002,-0.046,104.0,104.0,102.0,13.4,1505.2,322.7,-0.8,1.8,2470.715,13.29,0.037,266.9
2022-07-10T07:13:03,42.805,6.029,-0.036,0.006,-0.02,104.0,104.0,101.0,13.3,1505.2,321.5,-0.8,1.8,2470.713,13.29,0.036,279.5
2022-07-10T07:16:03,42.805,6.029,-0.056,0.006,-0.02,104.0,104.0,101.0,13.4,1505.2,325.8,-0.7,1.8,2470.7,13.29,0.056,276.1
2022-07-10T07:19:03,42.805,6.029,-0.024,0.007,0.003,103.0,104.0,101.0,13.4,1505.2,324.9,-0.7,1.8,2470.676,13.29,0.025,286.3
2022-07-10T07:22:03,42.805,6.029,-0.017,0.021,0.002,103.0,104.0,101.0,13.3,1505.2,328.5,-0.8,1.8,2470.665,13.29,0.027,321.0
2022-07-10T07:25:03,42.805,6.029,-0.013,0.012,0.013,104.0,103.0,101.0,13.4,1505.2,327.7,-0.8,1.8,2470.663,13.29,0.017,312.7
2022-07-10T07:28:03,42.805,6.029,-0.027,0.025,-0.018,104.0,104.0,101.0,13.4,1505.2,326.0,-0.8,1.8,2470.666,13.29,0.036,312.8
2022-07-10T07:31:03,42.805,6.029,-0.013,0.014,0.002,103.0,103.0,101.0,13.4,1505.2,326.5,-0.7,1.8,2470.681,13.29,0.019,317.1
2022-07-10T07:34:03,42.805,6.029,-0.028,0.005,-0.042,104.0,103.0,101.0,13.4,1505.2,321.1,-0.7,1.8,2470.645,13.29,0.028,280.1
2022-07-10T07:37:03,42.805,6.029,-0.026,0.008,-0.017,103.0,103.0,101.0,13.4,1505.2,323.5,-0.8,1.8,2470.627,13.29,0.027,287.1
2022-07-10T07:40:03,42.805,6.029,-0.038,0.008,-0.024,103.0,102.0,102.0,13.4,1505.2,322.3,-0.8,1.8,2470.606,13.29,0.038,281.9
2022-07-10T07:43:03,42.805,6.029,-0.026,0.012,-0.035,103.0,104.0,103.0,13.4,1505.2,320.7,-0.7,1.8,2470.621,13.29,0.028,294.8
2022-07-10T07:46:03,42.805,6.029,-0.043,0.001,-0.034,103.0,103.0,103.0,13.4,1505.2,325.2,-0.8,1.8,2470.604,13.29,0.043,271.3
2022-07-10T07:49:03,42.805,6.029,-0.047,0.006,-0.025,104.0,103.0,101.0,13.4,1505.2,328.0,-0.8,1.8,2470.635,13.29,0.047,277.3
2022-07-10T07:52:03,42.805,6.029,-0.043,-0.011,-0.048,104.0,104.0,102.0,13.3,1505.2,319.8,-0.8,1.8,2470.621,13.29,0.044,255.7
2022-07-10T07:55:03,42.805,6.029,-0.024,0.006,-0.025,105.0,104.0,101.0,13.4,1505.2,327.5,-0.8,1.8,2470.673,13.29,0.024,284.0
2022-07-10T07:58:03,42.805,6.029,-0.026,0.013,-0.034,105.0,104.0,101.0,13.4,1505.2,320.0,-0.8,1.8,2470.655,13.29,0.029,296.6
2022-07-10T08:04:03,42.805,6.029,-0.034,-0.007,-0.026,103.0,104.0,102.0,13.4,1505.2,327.6,-0.8,1.8,2470.7,13.28,0.034,258.4
2022-07-10T08:07:03,42.805,6.029,-0.053,0.018,-0.032,103.0,104.0,102.0,13.4,1505.2,327.1,-0.8,1.8,2470.726,13.28,0.055,288.8
2022-07-10T08:10:03,42.805,6.029,-0.023,0.0,-0.046,104.0,103.0,100.0,13.3,1505.2,328.2,-0.8,1.8,2470.705,13.28,0.023,270.0
2022-07-10T08:13:03,42.805,6.029,-0.037,0.019,-0.003,105.0,103.0,101.0,13.4,1505.2,328.0,-0.8,1.8,2470.762,13.29,0.041,297.2
2022-07-10T08:16:03,42.805,6.029,-0.03,0.035,-0.002,104.0,102.0,102.0,13.4,1505.2,328.1,-0.8,1.8,2470.694,13.29,0.046,319.4
2022-07-10T08:19:03,42.805,6.029,-0.043,0.024,-0.02,103.0,105.0,102.0,13.3,1505.2,330.9,-0.8,1.8,2470.708,13.29,0.049,299.2
2022-07-10T08:22:03,42.805,6.029,-0.028,0.021,-0.05,104.0,104.0,101.0,13.4,1505.2,322.7,-0.7,1.8,2470.698,13.29,0.035,306.9
2022-07-10T08:25:03,42.805,6.029,-0.04,0.018,-0.022,104.0,104.0,101.0,13.4,1505.2,327.7,-0.8,1.8,2470.674,13.29,0.043,294.2
2022-07-10T08:28:03,42.805,6.029,0.001,-0.001,0.005,103.0,105.0,102.0,13.4,1505.2,321.3,-0.7,1.8,2470.661,13.29,0.001,135.0
2022-07-10T08:31:03,42.805,6.029,-0.027,0.011,-0.03,103.0,103.0,100.0,13.4,1505.2,323.5,-0.8,1.8,2470.684,13.29,0.029,292.2
2022-07-10T08:34:03,42.805,6.029,-0.032,0.02,-0.004,104.0,102.0,101.0,13.4,1505.2,332.2,-0.7,1.8,2470.662,13.29,0.037,302.0
2022-07-10T08:37:03,42.805,6.029,-0.032,0.015,-0.026,104.0,104.0,101.0,13.4,1505.2,327.3,-0.8,1.8,2470.673,13.29,0.035,295.1
2022-07-10T08:40:03,42.805,6.029,-0.029,0.017,-0.001,104.0,103.0,102.0,13.4,1505.2,326.0,-0.7,1.8,2470.657,13.29,0.033,300.4
2022-07-10T08:43:03,42.805,6.029,-0.02,0.016,-0.022,104.0,104.0,101.0,13.4,1505.2,324.0,-0.7,1.8,2470.678,13.29,0.025,308.7
2022-07-10T08:46:03,42.805,6.029,-0.016,0.019,-0.011,104.0,103.0,101.0,13.4,1505.2,323.0,-0.7,1.8,2470.654,13.29,0.024,319.9
2022-07-10T08:49:03,42.805,6.029,-0.036,0.017,-0.001,104.0,105.0,102.0,13.4,1505.2,328.3,-0.8,1.8,2470.698,13.29,0.039,295.3
2022-07-10T08:52:03,42.805,6.029,-0.034,0.024,0.005,103.0,103.0,101.0,13.3,1505.2,333.1,-0.8,1.8,2470.669,13.29,0.041,305.2
2022-07-10T08:55:03,42.805,6.029,-0.031,0.009,-0.034,105.0,104.0,101.0,13.4,1505.2,328.9,-0.7,1.8,2470.607,13.29,0.032,286.2
2022-07-10T08:58:03,42.805,6.029,-0.035,0.031,-0.024,104.0,104.0,100.0,13.3,1505.2,327.8,-0.8,1.8,2470.652,13.29,0.046,311.5
2022-07-10T09:04:03,42.805,6.029,-0.024,0.014,-0.021,104.0,103.0,102.0,13.4,1505.2,324.7,-0.8,1.8,2470.674,13.28,0.027,300.3
2022-07-10T09:07:03,42.805,6.029,-0.06,0.001,-0.043,104.0,105.0,105.0,13.4,1505.2,321.8,-0.8,1.8,2470.662,13.28,0.06,271.0
2022-07-10T09:10:03,42.805,6.029,-0.019,0.02,-0.006,104.0,104.0,101.0,13.3,1505.2,333.6,-0.8,1.8,2470.64,13.28,0.027,316.5
2022-07-10T09:13:03,42.805,6.029,-0.054,0.023,-0.012,104.0,104.0,102.0,13.3,1505.2,329.0,-0.8,1.8,2470.642,13.29,0.058,293.1
2022-07-10T09:16:03,42.805,6.029,-0.008,0.031,0.011,103.0,105.0,102.0,13.4,1505.2,325.5,-0.8,1.8,2470.662,13.29,0.032,345.5
2022-07-10T09:19:03,42.805,6.029,-0.02,-0.014,-0.009,105.0,104.0,101.0,13.4,1505.2,324.9,-0.8,1.8,2470.604,13.29,0.024,235.0
2022-07-10T09:22:03,42.805,6.029,-0.035,0.008,0.007,105.0,104.0,102.0,13.3,1505.2,331.5,-0.8,1.8,2470.647,13.29,0.035,282.9
2022-07-10T09:25:03,42.805,6.029,-0.026,0.027,-0.024,104.0,104.0,101.0,13.4,1505.2,326.7,-0.8,1.8,2470.637,13.29,0.037,316.1
2022-07-10T09:28:03,42.805,6.029,-0.019,0.011,-0.027,105.0,104.0,101.0,13.4,1505.2,323.8,-0.7,1.8,2470.578,13.29,0.021,300.1
2022-07-10T09:31:03,42.805,6.029,-0.014,0.017,-0.026,104.0,105.0,101.0,13.3,1505.2,334.6,-0.8,1.8,2470.623,13.29,0.022,320.5
2022-07-10T09:34:03,42.805,6.029,-0.022,0.009,-0.013,103.0,105.0,101.0,13.3,1505.2,326.3,-0.8,1.8,2470.601,13.29,0.023,292.2
2022-07-10T09:37:03,42.805,6.029,-0.037,0.008,-0.041,105.0,104.0,100.0,13.4,1505.2,320.1,-0.8,1.8,2470.531,13.29,0.037,282.2
2022-07-10T09:40:03,42.805,6.029,-0.013,0.002,-0.027,104.0,104.0,101.0,13.4,1505.2,322.0,-0.8,1.9,2470.592,13.29,0.013,278.7
2022-07-10T09:43:03,42.805,6.029,-0.028,0.039,-0.02,104.0,103.0,100.0,13.4,1505.2,321.4,-0.8,1.9,2470.602,13.29,0.048,324.3
2022-07-10T09:46:03,42.805,6.029,-0.042,0.021,-0.019,103.0,105.0,102.0,13.4,1505.2,320.5,-0.8,1.8,2470.602,13.29,0.046,296.6
2022-07-10T09:49:03,42.805,6.029,-0.018,0.026,-0.025,103.0,103.0,102.0,13.4,1505.2,329.6,-0.8,1.8,2470.613,13.29,0.031,325.3
2022-07-10T09:52:03,42.805,6.029,-0.021,0.008,-0.022,104.0,106.0,102.0,13.4,1505.2,325.3,-0.7,1.8,2470.611,13.29,0.022,290.9